This is the latest recevied weather packets stored in our database for station/object DC0PP-10. If no packets are shown the sender has not sent any weather packets the latest 1 day(s).
| Time | Temp. | Humidity | Pressure | Rain* | Wind** | Luminosity | Snow |
|---|---|---|---|---|---|---|---|
| 1777739144 | 27.78° C | 35% | 1017.1 hPa | - | - | - | - |
| 1777738244 | 28.33° C | 35% | 1017.2 hPa | - | - | - | - |
| 1777737344 | 28.33° C | 34% | 1017.3 hPa | - | - | - | - |
| 1777736443 | 28.89° C | 34% | 1017.4 hPa | - | - | - | - |
| 1777735543 | 28.89° C | 34% | 1017.6 hPa | - | - | - | - |
| 1777734643 | 28.89° C | 34% | 1017.7 hPa | - | - | - | - |
| 1777733743 | 29.44° C | 34% | 1017.9 hPa | - | - | - | - |
| 1777732843 | 29.44° C | 34% | 1018 hPa | - | - | - | - |
| 1777731943 | 28.89° C | 34% | 1018.1 hPa | - | - | - | - |
| 1777731044 | 28.33° C | 34% | 1018.6 hPa | - | - | - | - |
| 1777730142 | 30° C | 33% | 1018.9 hPa | - | - | - | - |
| 1777729242 | 30° C | 32% | 1019 hPa | - | - | - | - |
| 1777728342 | 30° C | 32% | 1019.3 hPa | - | - | - | - |
| 1777727442 | 30° C | 32% | 1019.5 hPa | - | - | - | - |
| 1777726542 | 29.44° C | 32% | 1019.6 hPa | - | - | - | - |
| 1777725641 | 28.89° C | 33% | 1019.9 hPa | - | - | - | - |
| 1777724745 | 28.33° C | 32% | 1020.1 hPa | - | - | - | - |
| 1777723844 | 28.33° C | 33% | 1020.3 hPa | - | - | - | - |
| 1777722944 | 28.33° C | 32% | 1020.4 hPa | - | - | - | - |
| 1777722044 | 29.44° C | 32% | 1020.6 hPa | - | - | - | - |
| 1777721144 | 28.89° C | 32% | 1020.7 hPa | - | - | - | - |
| 1777720244 | 28.89° C | 33% | 1021 hPa | - | - | - | - |
| 1777719344 | 28.89° C | 34% | 1021.2 hPa | - | - | - | - |
| 1777718443 | 28.33° C | 34% | 1021.3 hPa | - | - | - | - |
| 1777717543 | 28.33° C | 33% | 1021.5 hPa | - | - | - | - |
* Rain since midnight (hover to see other rain measurements)
** Current wind speed in m/s (hover to see current wind gust speed)